Weather History for KGCN - March, 2013

Change the Weather History Date:

Sunday, March 3, 2013

  Actual Average Record
Temperature  
Mean Temperature 40 °F -  
Max Temperature 57 °F 45 °F 64 °F (1999)
Min Temperature 23 °F 16 °F -4 °F (2002)
Degree Days  
Heating Degree Days 25    
Moisture  
Dew Point 21 °F    
Average Humidity 51    
Maximum Humidity 85    
Minimum Humidity 23    
Precipitation  
Precipitation 0.00 in - - ()
Sea Level Pressure  
Sea Level Pressure 30.01 in    
Wind  
Wind Speed 7 mph (SW)    
Max Wind Speed 22 mph    
Max Gust Speed 32 mph    
Visibility 10 miles    
Events Rain    
Averages and records for this station are not official NWS values.
T = Trace of Precipitation, MM = Missing Value Source: NWS Daily Summary

Daily Weather History Graph

Daily Weather History Graph

Search for Another Location

Airport or City:

Trip Planner

Search our weather history database for the weather conditions in past years. The results will help you decide how hot, cold, wet, or windy it might be!

Date:

Astronomy

Mar. 03, 2013 Rise Set
Actual Time 6:55 AM MST 6:25 PM MST
Civil Twilight 6:29 AM MST 6:51 PM MST
Nautical Twilight 6:00 AM MST 7:21 PM MST
Astronomical Twilight 5:30 AM MST 7:50 PM MST
Moon No Moon Rise 10:26 AM MST
Length of Visible Light 12h 21m
Length of Day
11h 30m
Waning Gibbous, 63% of the Moon is Illuminated
Mar 3
Waning Gibbous
Mar 4
Last Quarter
Mar 11
New
Mar 19
First Quarter
Mar 27
Full

Hourly Weather History & Observations

Time (MST) Temp. Windchill Dew Point Humidity Pressure Visibility Wind Dir Wind Speed Gust Speed Precip Events Conditions
12:54 AM 25.0 °F - 19.0 °F 78% 30.15 in 10.0 mi Calm Calm - N/A   Clear
1:54 AM 25.0 °F - 19.0 °F 78% 30.12 in 10.0 mi Calm Calm - N/A   Clear
2:54 AM 24.1 °F - 19.0 °F 81% 30.09 in 10.0 mi Calm Calm - N/A   Clear
3:54 AM 23.0 °F 18.4 °F 18.0 °F 81% 30.09 in 10.0 mi NE 3.5 mph - N/A   Clear
4:54 AM 23.0 °F - 18.0 °F 81% 30.07 in 10.0 mi Calm Calm - N/A   Clear
5:54 AM 25.0 °F - 21.0 °F 85% 30.06 in 10.0 mi Calm Calm - N/A   Clear
6:54 AM 24.1 °F - 19.9 °F 84% 30.12 in 10.0 mi Calm Calm - N/A   Clear
7:54 AM 37.9 °F 34.4 °F 26.1 °F 62% 30.10 in 10.0 mi WSW 4.6 mph - N/A   Partly Cloudy
8:54 AM 39.9 °F 35.1 °F 23.0 °F 51% 30.10 in 10.0 mi SW 6.9 mph - N/A   Mostly Cloudy
9:54 AM 44.1 °F 38.1 °F 21.9 °F 42% 30.10 in 10.0 mi SW 11.5 mph - N/A   Mostly Cloudy
10:54 AM 51.1 °F - 21.9 °F 32% 30.04 in 10.0 mi SW 19.6 mph 26.5 mph N/A   Partly Cloudy
11:54 AM 55.0 °F - 19.9 °F 25% 29.99 in 10.0 mi SW 18.4 mph 31.1 mph N/A   Scattered Clouds
12:54 PM 57.9 °F - 19.9 °F 23% 29.95 in 10.0 mi SW 20.7 mph 28.8 mph N/A   Mostly Cloudy
1:54 PM 54.0 °F - 21.9 °F 29% 29.94 in 10.0 mi WSW 21.9 mph 32.2 mph N/A   Mostly Cloudy
2:54 PM 53.1 °F - 21.0 °F 29% 29.94 in 10.0 mi WSW 20.7 mph 27.6 mph N/A   Overcast
3:54 PM 51.1 °F - 25.0 °F 36% 29.96 in 10.0 mi WSW 18.4 mph 25.3 mph 0.00 in Rain Light Rain
4:54 PM 50.0 °F - 27.0 °F 41% 29.95 in 10.0 mi SW 15.0 mph 24.2 mph 0.00 in   Overcast
5:54 PM 50.0 °F - 25.0 °F 38% 29.94 in 10.0 mi SW 13.8 mph 21.9 mph N/A   Mostly Cloudy
6:54 PM 48.0 °F - 25.0 °F 41% 29.94 in 10.0 mi SW 19.6 mph - N/A   Mostly Cloudy
8:54 PM 45.0 °F 39.3 °F 21.0 °F 39% 29.90 in 10.0 mi SSW 11.5 mph 19.6 mph N/A   Overcast
9:54 PM 43.0 °F 37.7 °F 21.0 °F 42% 29.90 in 10.0 mi SSW 9.2 mph - N/A   Overcast
10:54 PM 42.1 °F 37.7 °F 19.9 °F 41% 29.86 in 10.0 mi SSW 6.9 mph - N/A   Overcast
11:54 PM 42.1 °F 36.6 °F 19.9 °F 41% 29.82 in 10.0 mi SSW 9.2 mph - N/A   Mostly Cloudy